Starlink 30110

operational
NORAD ID: 57474 Int'l Des: 2023-107 Owner: SPXS Country: US Constellation: starlink
LEOCIRCULAR

关于 Starlink 30110

正在加载描述...

实时位置

正在加载3D地球...

即将过境

高度历史

Altitude vs Time

uPlot chart will show altitude changes over time

两行轨道根数

1 57474U 23107T 25306.50002315 .00154775 00000-0 34786-2 0 9991
2 57474 42.9938 261.3533 0027154 142.9038 229.8179 15.41673418 5848
Epoch: Nov 2, 2025 • Age: 25 hours

当前状态

高度 443.4 km
速度 7.65 km/s
星下点 33.37°N, 61.09°E
发射日期 Jul 28, 2023
运行时间 2.2 years
类型 internet

技术详情

分类 Payload
质量 730.00 kg
干质量 700.00 kg
总质量 730.00 kg
长度 0.30 m
直径 4.10 m
跨度 29.00 m
形状 Box + pan
制造商 SPXS
平台类型 Starlink V2M
阶段状态 In Orbit
所有者/国家 SPXS/US

大型星座

Loading constellations...